[[{"header":{"parameterUnit":"m.s-1","parameterCategory":1,"la1":30.2992,"la2":30.254,"lo1":-89.0895,"lo2":-89.0443,"dy":0.0025,"dx":0.0025,"nx":19,"ny":19,"refTime":"2026-04-28T03:00:00:Z","depth":0,"parameterNumber":2,"parameterNumberName":"U-component_of_WINDS"},"data":[0,0,0,-1.5686,-1.5689,-1.5821,-1.5821,-1.598,-1.5981,0,0,0,0,0,0,0,0,0,0,0,-1.5639,-1.564,-1.5686,-1.5689,-1.5821,-1.5821,-1.598,-1.5981,0,0,0,0,0,0,0,0,0,0,0,-1.5639,-1.564,-1.5641,-1.569,-1.5821,-1.5822,-1.598,-1.5884,0,0,0,0,0,0,0,0,0,0,-1.5758,-1.5706,-1.564,-1.5641,-1.569,-1.582,-1.5822,-1.588,-1.589,-1.5916,0,-1.5934,0,-1.596,-1.5991,-1.5992,0,0,0,-1.5696,-1.5698,-1.574,-1.5641,-1.5692,-1.582,-1.5763,-1.5886,-1.5897,-1.5929,-1.5937,-1.5943,-1.5963,-1.5992,-1.5993,-1.6114,-1.6114,0,0,-1.5689,-1.5659,-1.5732,-1.5747,-1.5724,-1.5759,-1.5767,-1.5893,-1.59,-1.5937,-1.5947,-1.5965,-1.5993,-1.5994,-1.6114,-1.6114,0,0,0,-1.5663,-1.5654,-1.5694,-1.5741,-1.5765,-1.5763,-1.5772,-1.5894,-1.591,-1.5949,-1.5967,-1.5994,-1.5996,-1.6114,-1.6114,-1.6097,0,0,0,-1.5659,-1.5639,-1.569,-1.5674,-1.5762,-1.5831,-1.577,-1.5901,-1.5916,-1.5967,-1.5994,-1.5997,-1.6113,-1.6114,-1.6097,-1.6094,0,0,0,-1.5634,-1.5636,-1.5652,-1.5672,-1.5727,-1.5829,-1.5852,-1.5905,-1.5927,-1.5992,-1.5998,-1.6113,-1.6114,-1.6097,-1.6094,-1.6117,0,0,0,-1.5598,-1.5637,-1.5652,-1.5702,-1.5726,-1.5818,-1.5852,-1.5922,-1.5976,-1.5995,-1.6113,-1.6114,-1.6097,-1.6094,-1.6117,-1.6131,-1.6134,0,0,-1.563,-1.5639,-1.5671,-1.5689,-1.577,-1.58,-1.588,-1.5958,-1.5992,-1.6072,-1.6075,-1.6097,-1.6094,-1.6117,-1.6162,-1.6164,0,0,0,-1.5672,-1.5694,-1.5722,-1.5771,-1.583,-1.5881,-1.595,-1.5979,-1.6048,-1.6026,-1.6113,-1.6112,-1.6127,-1.6135,-1.6137,-1.6152,-1.6116,-1.6116,-1.6116,-1.5674,-1.5715,-1.577,-1.5827,-1.5874,-1.5944,-1.5987,-1.6039,-1.6067,-1.6087,-1.611,-1.6132,-1.614,-1.6142,-1.6157,-1.6121,-1.6121,-1.6121,-1.6121,-1.5724,-1.5762,-1.5798,-1.5865,-1.5908,-1.5966,-1.6036,-1.6054,-1.6115,-1.6118,-1.6133,-1.6131,-1.6143,-1.6158,-1.612,-1.6121,-1.6121,-1.6121,-1.6121,-1.573,-1.5755,-1.5789,-1.5864,-1.5918,-1.5976,-1.6032,-1.607,-1.6107,-1.6122,-1.6151,-1.6152,-1.6157,-1.6133,-1.6133,-1.6134,-1.6134,-1.6134,-1.6134,-1.5722,-1.5761,-1.5803,-1.5869,-1.5906,-1.596,-1.6032,-1.607,-1.6122,-1.6146,-1.6146,-1.6172,-1.6137,-1.6126,-1.6135,-1.6135,-1.6135,-1.6135,-1.6134,-1.5757,-1.5755,-1.5819,-1.5856,-1.5938,-1.5989,-1.6038,-1.6112,-1.6149,-1.6176,-1.62,-1.6168,-1.618,-1.6179,-1.6171,-1.6191,-1.6191,-1.6191,-1.6191,-1.5761,-1.5771,-1.5846,-1.5902,-1.5962,-1.6012,-1.6086,-1.6143,-1.6202,-1.6228,-1.6231,-1.6224,-1.6221,-1.6236,-1.6233,-1.6226,-1.626,-1.626,-1.626,-1.5785,-1.5802,-1.5856,-1.5912,-1.598,-1.6037,-1.6108,-1.6173,-1.624,-1.6263,-1.6249,-1.6246,-1.6235,-1.623,-1.6251,-1.6247,-1.6235,0,0]},{"header":{"parameterUnit":"m.s-1","parameterCategory":1,"la1":30.2992,"la2":30.254,"lo1":-89.0895,"lo2":-89.0443,"dy":0.0025,"dx":0.0025,"nx":19,"ny":19,"refTime":"2026-04-28T03:00:00:Z","depth":0,"parameterNumber":3,"parameterNumberName":"V-component_of_WINDS"},"data":[0,0,0,2.9415,2.9416,2.9435,2.9435,2.9467,2.9467,0,0,0,0,0,0,0,0,0,0,0,2.9415,2.9415,2.9415,2.9416,2.9435,2.9435,2.9467,2.9467,0,0,0,0,0,0,0,0,0,0,0,2.9415,2.9415,2.9416,2.9416,2.9435,2.9435,2.9467,2.945,0,0,0,0,0,0,0,0,0,0,2.943,2.9435,2.9415,2.9416,2.9416,2.9435,2.9435,2.9449,2.9451,2.9462,0,2.9474,0,2.9471,2.947,2.947,0,0,0,2.9412,2.9433,2.9434,2.9416,2.9416,2.9435,2.9425,2.945,2.9452,2.9465,2.9474,2.9475,2.9472,2.947,2.9471,2.955,2.9551,0,0,2.9411,2.9421,2.9432,2.9435,2.9433,2.9425,2.9426,2.9451,2.9462,2.9474,2.9476,2.9472,2.9471,2.9471,2.955,2.9551,0,0,0,2.9411,2.9421,2.942,2.9434,2.9437,2.9425,2.9427,2.9461,2.946,2.9476,2.9473,2.9471,2.9471,2.9549,2.955,2.9588,0,0,0,2.941,2.942,2.942,2.9426,2.9437,2.9449,2.9436,2.9458,2.9461,2.9473,2.9471,2.9472,2.9549,2.955,2.9585,2.9604,0,0,0,2.9412,2.9421,2.9425,2.9427,2.9435,2.9449,2.9449,2.9458,2.9459,2.947,2.9472,2.9548,2.9549,2.9583,2.96,2.9628,0,0,0,2.9417,2.9458,2.9426,2.9471,2.9435,2.9472,2.9449,2.9475,2.949,2.9471,2.9549,2.955,2.9583,2.9598,2.9626,2.9653,2.9665,0,0,2.9475,2.9466,2.9491,2.9463,2.9508,2.9468,2.9519,2.9522,2.9514,2.9539,2.954,2.9586,2.96,2.9627,2.9731,2.9741,0,0,0,2.9513,2.9531,2.9541,2.9555,2.9559,2.9564,2.9559,2.956,2.9581,2.9529,2.9603,2.9611,2.9627,2.9639,2.9648,2.966,2.9556,2.9556,2.9556,2.9608,2.9596,2.9637,2.9627,2.9641,2.9636,2.9646,2.9647,2.963,2.9648,2.9655,2.9719,2.9734,2.974,2.9754,2.9668,2.9668,2.9668,2.9669,2.9691,2.9715,2.9692,2.9723,2.971,2.9736,2.9732,2.9719,2.9742,2.9712,2.9726,2.9695,2.9751,2.9762,2.9671,2.9671,2.967,2.967,2.967,2.9752,2.9761,2.9763,2.9783,2.98,2.9788,2.981,2.9797,2.9785,2.9798,2.9804,2.9803,2.9801,2.9802,2.9802,2.9802,2.9802,2.9802,2.9803,2.9815,2.9815,2.9836,2.9844,2.9852,2.986,2.9855,2.9863,2.9867,2.9855,2.9855,2.9836,2.976,2.974,2.9806,2.9805,2.9805,2.9805,2.9804,2.9903,2.9881,2.9913,2.9921,2.993,2.9947,2.993,2.9946,2.995,2.9962,2.994,2.9885,2.9875,2.9868,2.9852,2.9943,2.9943,2.9943,2.9943,2.9954,2.9948,2.9978,2.9991,3.0003,2.9991,3.0028,3.0025,3.0018,3.0019,3.0004,2.9982,2.9976,2.9969,2.996,2.9945,3.0057,3.0057,3.0057,3.0008,3.0002,3.0036,3.0029,3.0035,3.004,3.0074,3.009,3.0078,3.0062,3.002,3.0016,2.9979,2.9968,2.9951,2.9937,2.9909,0,0]}]]